Location: Bacea
(45.9500°N, 22.6667°E)
Time: 20:56:46
(UTC+00:00)

ATLAS 3B R/B - Pass Details

Date: 16 October 2021
Orbit: 989 x 1206 km, 63.8° (Epoch: 25 November)

Event Time Altitude Azimuth Distance (km) Brightness Sun altitude
Rises 18:28:58 0° 263° (W) 3,740 6.5 -29.6°
Reaches altitude 10° 18:31:58 10° 275° (W) 2,817 5.8 -30.1°
Maximum altitude 18:37:32 27° 332° (NNW) 1,892 4.3 -31.0°
Enters shadow 18:42:52 12° 27° (NNE) 2,816 4.8 -31.9°
